AMOS-4

Last updated on Sun Jun 21 2026 00:03:05 GMT+0000 (Coordinated Universal Time)

1 39237U 13045A 26171.11969681 .00000002 00000+0 00000+0 0 9995 2 39237 0.0115 299.3424 0002571 122.6433 314.4515 1.00272245 46985
UTC large
Height (km)
Speed (km/s)
/
Latitude / Longitude
Inclination (degrees)
Orbital Period (minutes)
Azimuth
Elevation
Range (km)
Doppler Factor

Next 0 passes for location: London (51.5072 / 0.1276)

No passes found over London.
AMOS-4